Content
SEND FEEDBACK

Daily
Averages
Monthly
Summary
Turkmenistan

ASHGABAT, TURKMENISTAN


Home > Asia > Turkmenistan
Elevation: 775 feet     Latitude: 37 58N     Longitude: 058 20E

WEATHER
 
SELECT A DAY
Number of Records: 177,268;   Date Range: 3/15/97 - 7/29/14
 
SHARE

PRINT THIS DATA

[ ← Previous Day ]
WEATHER ALMANAC - AUGUST 24, 2013
[ Next Day → ]
[ °C ]   °F
Weather ElementAverageHighLow
Temperature85.6 °F95 °F (4:00 pm)77 °F (6:00 am)
Dewpoint47.6 °F55.4 °F (6:00 am)41 °F (12:00 pm)
Humidity25.9 %47 % (6:00 am)12 % (2:00 pm)
Barometer29.92 in29.98 in (7:00 am)29.85 in (5:00 pm)
Wind Speed7 mph11.2 mph (5:00 pm)
Weather ElementAverage
Visibility6.1 mi
Wind DirectionSSW (191.6 °)

Weather ElementTotal
Precipitation---
Cooling Degree Days21 (Base 65)
Growing Degree Days36 (Base 50)
Averaged from 31 records on August 24, 2013
WEATHER CONDITIONS BREAKOUT
WIND DIRECTION BREAKOUT
WEATHER BY HOUR - AUGUST 24, 2013
[ °C ]   °F
Local TimeTemperatureDewpointHumidityBarometerVisibilityWind DirectionWind SpeedGust SpeedPrecipitationEventsConditions
1:00 AM82.4 °F51.8 °F35 %29.95 in6.2 miWNW (290°)6.7 mphMostly Cloudy
2:00 AM82.0 °F52.0 °F25 %29.94 in6.0 miWest (280°)4.5 mphMostly Cloudy
2:00 AM82.4 °F51.8 °F35 %29.95 in6.2 miWNW (290°)6.7 mphMostly Cloudy
3:00 AM80.6 °F50.0 °F34 %29.95 in6.2 miWNW (290°)4.5 mphMostly Cloudy
4:00 AM78.8 °F51.8 °F39 %29.95 in6.2 miNW (310°)4.5 mphMostly Cloudy
5:00 AM80.0 °F55.0 °F32 %29.93 in6.0 miNNW (340°)4.5 mphPartly Cloudy
5:00 AM78.8 °F53.6 °F42 %29.95 in6.2 miNNW (340°)4.5 mphMostly Cloudy
6:00 AM77.0 °F55.4 °F47 %29.95 in6.2 miWest (270°)4.5 mphMostly Cloudy
7:00 AM77.0 °F50.0 °F39 %29.98 in6.2 miWest (270°)4.5 mphMostly Cloudy
8:00 AM77.0 °F55.0 °F35 %29.97 in6.0 miNW (320°)4.5 mphScattered Clouds
8:00 AM78.8 °F50.0 °F36 %29.98 in6.2 miNW (320°)4.5 mphMostly Cloudy
9:00 AM82.4 °F46.4 °F28 %29.98 in6.2 miNNW (340°)4.5 mphMostly Cloudy
10:00 AM84.2 °F46.4 °F27 %29.98 in6.2 miNorth (360°)4.5 mphMostly Cloudy
11:00 AM85.0 °F50.0 °F20 %29.96 in6.0 miEast (100°)6.7 mphScattered Clouds
11:00 AM87.8 °F44.6 °F22 %29.98 in6.2 miEast (100°)6.7 mphPartly Cloudy
12:00 PM89.6 °F41.0 °F18 %29.95 in6.2 miESE (110°)6.7 mphPartly Cloudy
1:00 PM91.4 °F41.0 °F17 %29.92 in6.2 miENE (70°)8.9 mphPartly Cloudy
2:00 PM92.0 °F45.0 °F12 %29.90 in6.0 miEast (90°)8.9 mphScattered Clouds
2:00 PM93.2 °F41.0 °F16 %29.92 in6.2 miEast (90°)8.9 mphPartly Cloudy
3:00 PM93.2 °F41.0 °F16 %29.89 in6.2 miEast (100°)6.7 mphPartly Cloudy
4:00 PM95.0 °F41.0 °F15 %29.89 in6.2 miEast (90°)8.9 mphClear
5:00 PM94.0 °F47.0 °F12 %29.85 in6.0 miESE (110°)11.2 mph
5:00 PM95.0 °F41.0 °F15 %29.86 in6.2 miESE (110°)11.2 mphClear
6:00 PM95.0 °F41.0 °F15 %29.86 in6.2 miSE (130°)8.9 mphClear
7:00 PM93.2 °F42.8 °F17 %29.86 in6.2 miESE (120°)11.2 mphClear
8:00 PM89.0 °F49.0 °F16 %29.85 in6.0 miESE (120°)8.9 mph
8:00 PM89.6 °F44.6 °F21 %29.86 in6.2 miESE (120°)8.9 mphClear
9:00 PM86.0 °F44.6 °F23 %29.89 in6.2 miESE (120°)8.9 mphClear
10:00 PM82.4 °F48.2 °F30 %29.89 in6.2 miESE (110°)8.9 mphClear
11:00 PM79.0 °F54.0 °F31 %29.87 in6.0 miESE (110°)6.7 mph
11:00 PM80.6 °F48.2 °F32 %29.89 in6.2 miESE (120°)6.7 mphClear
Hourly data recorded from UTAA, located miles away from Ashgabat, Turkmenistan







STORIES FROM OUR PARTNERS